This demonstration page uses our WeatherBlox Daily Observations layout. Learn more.

Left ArrowRight Arrow

Hourly Observations for June 12, 2021

Temp ( °F °C ) Dew Point ( °F °C ) Humidity (%) Winds ( mph kmh ) Pressure ( in mb ) Visibility ( mi km ) Precip ( " mm )
12:15 am 00:15 Clear 73 23 73 23 100 100 N N/A 29.81 1009 10 16 N/A
12:35 am 00:35 Clear 72 22 72 22 100 100 N N/A 29.82 1010 10 16 N/A
12:55 am 00:55 Clear 73 23 73 23 100 100 N N/A 29.82 1010 10 16 N/A
1:15 am 01:15 Clear 70 21 70 21 100 100 N N/A 29.83 1010 10 16 N/A
1:35 am 01:35 Clear 72 22 72 22 100 100 N N/A 29.82 1010 10 16 N/A
1:55 am 01:55 Clear 72 22 72 22 100 100 N N/A 29.83 1010 10 16 N/A
2:15 am 02:15 Clear 70 21 70 21 100 100 N N/A 29.84 1010 10 16 N/A
2:35 am 02:35 Clear 70 21 70 21 100 100 N N/A 29.84 1010 10 16 N/A
2:55 am 02:55 Clear 70 21 70 21 100 100 N N/A 29.82 1010 10 16 N/A
3:15 am 03:15 Clear 72 22 72 22 100 100 N N/A 29.81 1010 10 16 N/A
3:35 am 03:35 Clear 70 21 70 21 100 100 N N/A 29.83 1010 10 16 N/A
3:55 am 03:55 Clear 70 21 70 21 100 100 N N/A 29.83 1010 10 16 N/A
4:15 am 04:15 Clear 68 20 68 20 100 100 N N/A 29.84 1010 10 16 N/A
4:35 am 04:35 Clear 68 20 68 20 100 100 N N/A 29.84 1010 10 16 N/A
4:55 am 04:55 Clear 68 20 68 20 100 100 N N/A 29.84 1010 10 16 N/A
5:15 am 05:15 Clear 68 20 68 20 100 100 N N/A 29.84 1010 10 16 N/A
5:35 am 05:35 Clear 68 20 68 20 100 100 N N/A 29.84 1010 10 16 N/A
5:55 am 05:55 Clear 66 19 66 19 100 100 N N/A 29.84 1011 7 11 N/A
6:15 am 06:15 Sunny 66 19 66 19 100 100 N N/A 29.84 1011 7 11 N/A
6:35 am 06:35 Sunny 66 19 66 19 100 100 N N/A 29.84 1011 7 11 N/A
6:55 am 06:55 Sunny 70 21 70 21 100 100 N N/A 29.85 1011 7 11 N/A
7:15 am 07:15 Sunny 70 21 70 21 100 100 N N/A 29.85 1011 7 11 N/A
7:35 am 07:35 Sunny 72 22 72 22 100 100 N N/A 29.85 1011 7 11 N/A
7:55 am 07:55 Sunny 73 23 73 23 100 100 N N/A 29.85 1011 10 16 N/A
8:15 am 08:15 Sunny 75 24 75 24 100 100 N N/A 29.85 1011 10 16 N/A
8:35 am 08:35 Sunny 77 25 75 24 94 94 N N/A 29.84 1011 10 16 N/A
8:55 am 08:55 Sunny 79 26 77 25 94 94 N N/A 29.84 1010 10 16 N/A
9:15 am 09:15 Sunny 81 27 77 25 89 89 N N/A 29.84 1010 10 16 N/A
9:35 am 09:35 Sunny 82 28 73 23 74 74 N N/A 29.82 1010 10 16 N/A
9:55 am 09:55 Sunny 82 28 73 23 74 74 N N/A 29.82 1010 10 16 N/A
10:15 am 10:15 Sunny 84 29 73 23 70 70 N N/A 29.83 1010 10 16 N/A
10:35 am 10:35 Sunny 86 30 73 23 66 66 N N/A 29.83 1010 10 16 N/A
10:55 am 10:55 Sunny 86 30 75 24 70 70 N N/A 29.83 1010 10 16 N/A
11:15 am 11:15 Sunny 86 30 73 23 66 66 N N/A 29.83 1010 10 16 N/A
11:35 am 11:35 Sunny 88 31 73 23 62 62 N N/A 29.83 1010 10 16 N/A
11:55 am 11:55 Sunny 88 31 73 23 62 62 N N/A 29.83 1010 10 16 N/A
12:15 pm 12:15 Sunny 88 31 73 23 62 62 N N/A 29.83 1010 10 16 N/A
12:35 pm 12:35 Sunny 90 32 72 22 55 55 N N/A 29.82 1010 10 16 N/A
12:55 pm 12:55 Sunny 90 32 73 23 59 59 N N/A 29.82 1010 10 16 N/A
1:15 pm 13:15 Sunny 90 32 73 23 59 59 N N/A 29.82 1010 10 16 N/A
1:35 pm 13:35 Sunny 91 33 73 23 56 56 N N/A 29.81 1009 10 16 N/A
1:55 pm 13:55 Sunny 90 32 72 22 55 55 N N/A 29.81 1010 10 16 N/A
2:15 pm 14:15 Sunny 90 32 70 21 52 52 N N/A 29.81 1010 10 16 N/A
2:35 pm 14:35 Partly Cloudy 90 32 72 22 55 55 N N/A 29.81 1010 10 16 N/A
2:55 pm 14:55 Mostly Cloudy 91 33 73 23 56 56 N N/A 29.81 1009 10 16 N/A
3:15 pm 15:15 Partly Cloudy 91 33 72 22 52 52 N N/A 29.81 1009 10 16 N/A
3:35 pm 15:35 Partly Cloudy 91 33 72 22 52 52 N N/A 29.80 1009 10 16 N/A
3:55 pm 15:55 Sunny 93 34 72 22 49 49 N N/A 29.79 1009 10 16 N/A
4:15 pm 16:15 Sunny 91 33 70 21 49 49 N N/A 29.78 1008 10 16 N/A
4:35 pm 16:35 Sunny 93 34 72 22 49 49 N N/A 29.78 1008 10 16 N/A
4:55 pm 16:55 Sunny 91 33 72 22 52 52 N N/A 29.77 1008 10 16 N/A
5:15 pm 17:15 Sunny 91 33 72 22 52 52 N N/A 29.77 1008 10 16 N/A
5:35 pm 17:35 Sunny 90 32 72 22 55 55 N N/A 29.77 1008 10 16 N/A
5:55 pm 17:55 Sunny 91 33 72 22 52 52 N N/A 29.77 1008 10 16 N/A
6:15 pm 18:15 Sunny 91 33 70 21 49 49 N N/A 29.77 1008 10 16 N/A
6:35 pm 18:35 Partly Cloudy 91 33 72 22 52 52 N N/A 29.76 1008 10 16 N/A
6:55 pm 18:55 Mostly Cloudy 91 33 72 22 52 52 N N/A 29.76 1008 10 16 N/A
7:15 pm 19:15 Cloudy 91 33 72 22 52 52 N N/A 29.76 1008 10 16 N/A
7:35 pm 19:35 Cloudy 90 32 70 21 52 52 N N/A 29.76 1008 10 16 N/A
7:55 pm 19:55 Mostly Cloudy 88 31 75 24 66 66 N N/A 29.77 1008 10 16 N/A
8:15 pm 20:15 Sunny 86 30 75 24 70 70 N N/A 29.78 1008 10 16 N/A
8:35 pm 20:35 Mostly Cloudy 84 29 77 25 79 79 N N/A 29.78 1009 10 16 N/A
8:55 pm 20:55 Cloudy 84 29 73 23 70 70 SSW 12 19 29.77 1008 10 16 N/A
9:15 pm 21:15 Partly Cloudy 82 28 72 22 70 70 SSW 9 15 29.78 1009 10 16 N/A
9:35 pm 21:35 Partly Cloudy N/A N/A N/A N N/A N/A 10 16 N/A
9:55 pm 21:55 Mostly Cloudy 79 26 72 22 79 79 N N/A 29.79 1009 10 16 N/A

Powered by AerisWeather